Home   Weather   Syktyvkar   Past weeks

Flag for Russia Past Weather in Syktyvkar, Russia — Yesterday and Last 2 Weeks

Now
43 °F

Clear.


Feels Like: 38 °F
Forecast: 34 / 47 °F
Wind: 8 mph from Southeast

Location: Syktyvkar Airport

Current Time: Apr 26, 2017 at 9:03:33 pm

Latest Report: Apr 26, 2017 at 8:30 pm


Visibility: 10 mi

Pressure: 29.98 "Hg

Humidity: 46%

Dew Point: 23 °F

Location of SyktyvkarLocation

Past Weather in Syktyvkar — Graph

°F

Syktyvkar Temperature Yesterday

Maximum temperature yesterday: 45 °F (at 3:30 pm)
Minimum temperature yesterday: 30 °F (at 11:30 pm)
Average temperature yesterday: 37 °F

High & Low Weather Summary for the Past Weeks

 TemperatureHumidityPressure
High48 °F (Apr 11, 7:00 pm)100% (Apr 12, 9:30 am)30.36 "Hg (Apr 12, 9:30 am)
Low12 °F (Apr 20, 4:00 am)34% (Apr 26, 2:30 pm)28.94 "Hg (Apr 16, 2:30 am)
Average33 °F79%29.63 "Hg
* Reported Apr 11 7:00 pm — Apr 26 7:30 pm, Syktyvkar, Weather by CustomWeather, © 2017

Note: Actual official high and low records may vary slightly from our data, if they occured in-between our weather recording intervals... More about our weather records

Advertising

Syktyvkar Weather History for the Previous 24 Hours

Scroll right to see more
 ConditionsComfort  
Time TempWeatherWind HumidityBarometerVisibility
7:30 pm
Wed, Apr 26
43 °FClear.8 mph49%29.98 "Hg10 mi
7:00 pm43 °FSunny.6 mph49%30.01 "Hg10 mi
6:30 pm45 °FSunny.8 mph42%30.01 "Hg10 mi
6:00 pm45 °FSunny.8 mph46%30.01 "Hg10 mi
5:30 pm46 °FSunny.6 mph46%30.01 "Hg10 mi
5:00 pm48 °FSunny.6 mph34%30.04 "Hg10 mi
4:30 pm48 °FSunny.8 mph40%30.04 "Hg10 mi
4:00 pm48 °FSunny.8 mph34%30.04 "Hg10 mi
3:30 pm48 °FSunny.6 mph34%30.04 "Hg10 mi
3:00 pm48 °FPassing clouds.6 mph34%30.07 "HgN/A
2:30 pm48 °FSunny.6 mph34%30.07 "Hg10 mi
2:00 pm48 °FSunny.6 mph40%30.09 "Hg10 mi
1:30 pm46 °FSunny.8 mph40%30.09 "Hg10 mi
12:30 pm46 °FSunny.1 mph40%30.09 "Hg10 mi
12:00 pm45 °FSunny.1 mph46%30.09 "Hg10 mi
11:30 am45 °FSunny.1 mph42%30.09 "Hg10 mi
11:00 am45 °FSunny.No wind42%30.09 "Hg10 mi
10:30 am45 °FSunny.No wind49%30.09 "Hg10 mi
10:00 am41 °FSunny.No wind61%30.09 "Hg10 mi
9:30 am39 °FSunny.No wind61%30.09 "Hg10 mi
9:00 am37 °FSunny.1 mph65%30.09 "Hg10 mi
8:30 am36 °FSunny.No wind75%30.09 "Hg10 mi
8:00 am36 °FSunny.3 mph75%30.09 "Hg10 mi
7:30 am36 °FSunny.No wind70%30.09 "Hg10 mi
7:00 am34 °FSunny.3 mph75%30.07 "Hg10 mi
6:30 am34 °FSunny.3 mph75%30.07 "Hg10 mi
6:00 am34 °FSunny.1 mph75%30.07 "Hg10 mi
5:30 am34 °FSunny.No wind75%30.07 "Hg10 mi
5:00 am32 °FSunny.No wind87%30.04 "Hg10 mi
4:30 am30 °FSunny.No wind93%30.04 "Hg10 mi
4:00 am30 °FSunny.No wind86%30.04 "Hg10 mi
3:30 am30 °FClear.No wind93%30.04 "Hg10 mi
3:00 am30 °FClear.No wind86%30.01 "Hg10 mi
2:30 am30 °FClear.1 mph86%30.01 "Hg10 mi
2:00 am32 °FClear.1 mph80%30.01 "Hg10 mi
1:30 am34 °FClear.1 mph75%29.98 "Hg10 mi
1:00 am36 °FClear.1 mph70%29.98 "Hg10 mi
12:30 am36 °FClear.1 mph70%29.98 "Hg10 mi
12:00 am32 °FClear.3 mph80%29.98 "Hg10 mi
11:30 pm
Tue, Apr 25
30 °FClear.No wind86%29.95 "Hg10 mi
10:30 pm34 °FClear.1 mph75%29.95 "Hg10 mi
10:00 pm36 °FClear.1 mph70%29.95 "Hg10 mi
9:30 pm37 °FClear.3 mph65%29.92 "Hg6 mi
9:00 pm37 °FClear.3 mph65%29.92 "Hg10 mi
Weather by CustomWeather, © 2017

See weather overviewHow to use our weather pages